Regional Weather Roundup
Issued by NWS

Home | Current Version | Previous Version | Text Only | Print | Product List | Glossary Off
Versions: 1 2 3 4 5 6 7 8 9 10 11 12 13 14 15 16 17 18 19 20 21 22 23 24 25 26 27 28 29 30 31 32 33 34 35 36 37 38 39 40 41 42 43 44 45 46 47 48 49 50

000
ASUS45 KPSR 300300
RWRAZ

ARIZONA HOURLY REGIONAL WEATHER ROUNDUP
NATIONAL WEATHER SERVICE PHOENIX AZ
800 PM MST WED JUL 29 2015

NOTE: FAIR INDICATES FEW OR NO CLOUDS BELOW 12,000 FEET WITH NO
SIGNIFICANT WEATHER AND/OR OBSTRUCTIONS TO VISIBILITY.

AZZ001>003-036-300400-
NORTHWEST ARIZONA

CITY           SKY/WX    TMP DP  RH WIND       PRES   REMARKS
KINGMAN        CLOUDY    87  55  33 SW18      30.07R
$$

AZZ004>008-015-016-018-300400-
NORTH CENTRAL ARIZONA

CITY           SKY/WX    TMP DP  RH WIND       PRES   REMARKS
GRAND CANYON   MOCLDY    78  38  23 S3        30.30S
WILLIAMS       CLOUDY    73  52  46 S13G20    30.40R
PRESCOTT       CLOUDY    77  58  51 S3        30.22R
FLAGSTAFF      NOT AVBL
PAYSON         LGT RAIN  68  61  77 S8        30.29R
PAGE           MOCLDY    91  28  10 CALM      30.09R
$$

AZZ009>014-017-300400-
NORTHEAST ARIZONA

CITY           SKY/WX    TMP DP  RH WIND       PRES   REMARKS
WINSLOW        NOT AVBL
SAINT JOHNS    CLOUDY    64  61  90 E3        30.31F
SHOW LOW       LGT RAIN  59  55  88 E8        30.35S
$$

AZZ023-300400-
GREATER PHOENIX AREA

CITY           SKY/WX    TMP DP  RH WIND       PRES   REMARKS
PHOENIX        CLOUDY    92  60  34 E23G32    29.94R
GLENDALE       MOCLDY    97  61  30 S7        29.92R
DEER VALLEY    CLOUDY    90  57  32 E13G22    29.95R
SCOTTSDALE     CLOUDY    91  55  29 E8        29.97R
MESA-FALCON    MOCLDY    90  55  31 NE17G23   29.96
MESA-GATEWAY   MOCLDY    88  63  42 E17G33    30.00R
CHANDLER       MOCLDY    90  63  40 E23G35    29.97R
$$

AZZ027-028-300400-
SOUTHWEST MARICOPA COUNTY AND PINAL COUNTY

CITY           SKY/WX    TMP DP  RH WIND       PRES   REMARKS
CASA GRANDE    CLOUDY    90  61  37 NE25G32   29.97R
$$

AZZ503-504-507>509-300400-
SOUTHEAST ARIZONA

CITY           SKY/WX    TMP DP  RH WIND       PRES   REMARKS
TUCSON         LGT RAIN  76  68  76 E9        30.08R
RYAN FIELD     CLEAR     82  72  69 E17       30.04R
NOGALES        CLOUDY    70  65  84 NE7       30.14R
SAFFORD        MOCLDY    77  63  61 NW8       30.11R
$$

AZZ020-021-025-026-031-300400-
SOUTHWEST ARIZONA

CITY           SKY/WX    TMP DP  RH WIND       PRES   REMARKS
YUMA           MOCLDY    98  66  34 SW9       29.84R HX 101
$$

CAZ031-033-041-043-047-048-061-300400-
SOUTHERN CALIFORNIA

CITY           SKY/WX    TMP DP  RH WIND       PRES   REMARKS
DOWNTOWN L.A.  CLEAR     72  62  71 CALM      29.93R
L.A. AIRPORT   PTCLDY    69  64  84 W10       29.94R
SAN DIEGO      MOCLDY    72  62  71 NW8       29.95S
BURBANK        CLEAR     75  61  61 S10       29.92R
ONTARIO        PTCLDY    80  62  54 W10       29.92R
RIVERSIDE      MOCLDY    80  63  55 W9        29.92R
PALM SPRINGS   MOCLDY   101  63  28 E10       29.86R HX 103
EL CENTRO NAS  MOCLDY    96  67  38 SE10      29.83R HX 100
IMPERIAL       PTCLDY    98  66  34 SE13      29.81R HX 101
BLYTHE         CLOUDY    99  63  30 E6        29.85R HX 101
$$

NVZ020-UTZ003-300400-
SOUTHERN NEVADA-UTAH

CITY           SKY/WX    TMP DP  RH WIND       PRES   REMARKS
LAS VEGAS      NOT AVBL
SALT LAKE CITY PTCLDY    74  39  28 W8        30.20S
$$

NMZ009-TXZ055-300400-
NEW MEXICO-WEST TEXAS

CITY           SKY/WX    TMP DP  RH WIND       PRES   REMARKS
ALBUQUERQUE    CLOUDY    71  59  65 SE6       30.31R
EL PASO        TSTM      76  64  66 N16       30.13R
$$


........................KEY........................
SKY/WX - SKY CONDITION/WEATHER
TMP    - TEMPERATURE IN FAHRENHEIT
DP     - DEW POINT IN FAHRENHEIT
RH     - RELATIVE HUMIDITY IN PERCENT
WIND   - DIRECTION AND SPEED IN MILES PER HOUR (MPH)
VRB    - VARIABLE WIND DIRECTION
PRES   - MEAN SEA LEVEL PRESSURE IN INCHES OF MERCURY
         F - FALLING PRESSURE   R - RISING PRESSURE
         S - STEADY PRESSURE
VSB    - VISIBILITY IN MILES
HX     - HEAT INDEX IN FAHRENHEIT
WCI    - WIND CHILL INDEX IN FAHRENHEIT
TC     - TEMPERATURE IN CELSIUS WHICH IS ALSO KNOWN AS
         TEMPERATURE IN CENTIGRADE
AFB    - AIR FORCE BASE
         LUKE AFB IS LUKE AIR FORCE BASE
         DAVIS-MONTHAN IS DAVIS-MONTHAN AIR FORCE BASE
NAS    - NAVAL AIR STATION
         EL CENTRO NAS IS EL CENTRO NAVAL AIR STATION
N/A    - NOT AVAILABLE




USA.gov is the U.S. government's official web portal to all federal, state and local government web resources and services.